York, NE

8:35 AM CDT on October 14, 2019 (GMT -0500)
York Municipal

Weather History for KJYR - September, 2019

Change the Weather History Date:

Tuesday, September 17, 2019

  Actual Average Record
Temperature  
Mean Temperature 80 °F -  
Max Temperature 89 °F 77 °F 100 °F (1953)
Min Temperature 71 °F 52 °F 37 °F (1980)
Cooling Degree Days 15    
Growing Degree Days 30 (Base 50)    
Moisture  
Dew Point 66 °F    
Average Humidity 65    
Maximum Humidity 88    
Minimum Humidity 43    
Precipitation  
Precipitation 0.00 in - - ()
Sea Level Pressure  
Sea Level Pressure 29.91 in    
Wind  
Wind Speed 15 mph (South)    
Max Wind Speed 25 mph    
Max Gust Speed 33 mph    
Visibility 10 miles    
Events      
Averages and records for this station are not official NWS values.
T = Trace of Precipitation, MM = Missing Value Source: NWS Daily Summary

Daily Weather History Graph

Daily Weather History Graph

Search for Another Location

Airport or City:

Astronomy

Sep. 17, 2019 Rise Set
Actual Time 7:12 AM CDT 7:36 PM CDT
Civil Twilight 6:45 AM CDT 8:03 PM CDT
Nautical Twilight 6:12 AM CDT 8:36 PM CDT
Astronomical Twilight 5:39 AM CDT 9:09 PM CDT
Moon 9:38 PM CDT (9/17) 10:19 AM CDT (9/17)
Length of Visible Light 13h 18m
Length of Day
12h 23m
Waning Gibbous, 89% of the Moon is Illuminated
Sep 17
Waning Gibbous
Sep 21
Last Quarter
Sep 28
New
Oct 5
First Quarter
Oct 13
Full

Hourly Weather History & Observations

Time (CDT) Temp. Heat Index Dew Point Humidity Pressure Visibility Wind Dir Wind Speed Gust Speed Precip Events Conditions
12:15 AM 77.0 °F - 66.2 °F 69% 29.96 in 10.0 mi South 13.8 mph 19.6 mph N/A   Clear
12:35 AM 75.2 °F - 66.2 °F 73% 29.96 in 10.0 mi South 11.5 mph 18.4 mph N/A   Clear
12:55 AM 75.2 °F - 66.2 °F 73% 29.96 in 10.0 mi South 12.7 mph - N/A   Clear
1:15 AM 75.2 °F - 66.2 °F 73% 29.96 in 10.0 mi South 13.8 mph - N/A   Clear
1:35 AM 75.2 °F - 66.2 °F 73% 29.96 in 10.0 mi South 12.7 mph - N/A   Clear
1:55 AM 75.2 °F - 66.2 °F 73% 29.96 in 10.0 mi South 15.0 mph - N/A   Clear
2:15 AM 75.2 °F - 66.2 °F 73% 29.96 in 10.0 mi South 13.8 mph - N/A   Clear
2:35 AM 75.2 °F - 68.0 °F 78% 29.96 in 10.0 mi South 13.8 mph 19.6 mph N/A   Clear
3:15 AM 73.4 °F - 68.0 °F 83% 29.95 in 10.0 mi South 12.7 mph 16.1 mph N/A   Clear
3:35 AM 73.4 °F - 68.0 °F 83% 29.95 in 10.0 mi South 12.7 mph 19.6 mph N/A   Clear
3:55 AM 73.4 °F - 68.0 °F 83% 29.95 in 10.0 mi South 13.8 mph 19.6 mph N/A   Clear
4:15 AM 73.4 °F - 68.0 °F 83% 29.95 in 10.0 mi South 13.8 mph 19.6 mph N/A   Clear
4:35 AM 73.4 °F - 68.0 °F 83% 29.95 in 10.0 mi South 12.7 mph - N/A   Clear
4:55 AM 73.4 °F - 68.0 °F 83% 29.95 in 10.0 mi South 12.7 mph 17.3 mph N/A   Clear
5:15 AM 73.4 °F - 68.0 °F 83% 29.95 in 10.0 mi South 12.7 mph - N/A   Clear
5:35 AM 71.6 °F - 68.0 °F 88% 29.95 in 10.0 mi South 9.2 mph - N/A   Clear
5:55 AM 71.6 °F - 68.0 °F 88% 29.95 in 10.0 mi South 10.4 mph - N/A   Clear
6:15 AM 71.6 °F - 68.0 °F 88% 29.95 in 10.0 mi South 10.4 mph - N/A   Clear
6:35 AM 71.6 °F - 66.2 °F 83% 29.96 in 10.0 mi South 9.2 mph - N/A   Clear
6:55 AM 71.6 °F - 66.2 °F 83% 29.96 in 10.0 mi South 10.4 mph - N/A   Clear
7:15 AM 71.6 °F - 66.2 °F 83% 29.97 in 10.0 mi South 9.2 mph - N/A   Clear
7:35 AM 71.6 °F - 66.2 °F 83% 29.97 in 10.0 mi South 10.4 mph - N/A   Clear
7:55 AM 71.6 °F - 66.2 °F 83% 29.97 in 10.0 mi South 10.4 mph - N/A   Clear
8:15 AM 71.6 °F - 66.2 °F 83% 29.97 in 10.0 mi South 11.5 mph - N/A   Clear
8:35 AM 73.4 °F - 66.2 °F 78% 29.96 in 10.0 mi South 12.7 mph - N/A   Clear
8:55 AM 73.4 °F - 66.2 °F 78% 29.96 in 10.0 mi South 15.0 mph - N/A   Clear
9:15 AM 75.2 °F - 66.2 °F 73% 29.96 in 10.0 mi South 15.0 mph 20.7 mph N/A   Clear
9:35 AM 75.2 °F - 68.0 °F 78% 29.96 in 10.0 mi South 13.8 mph 20.7 mph N/A   Clear
9:55 AM 77.0 °F - 68.0 °F 74% 29.96 in 10.0 mi South 15.0 mph 21.9 mph N/A   Clear
10:15 AM 77.0 °F - 68.0 °F 74% 29.95 in 10.0 mi South 15.0 mph 25.3 mph N/A   Clear
10:35 AM 80.6 °F 83.2 °F 68.0 °F 65% 29.95 in 10.0 mi South 17.3 mph 23.0 mph N/A   Clear
10:55 AM 80.6 °F 83.2 °F 68.0 °F 65% 29.95 in 10.0 mi SSW 16.1 mph 24.2 mph N/A   Clear
11:15 AM 82.4 °F 85.4 °F 68.0 °F 62% 29.94 in 10.0 mi South 15.0 mph 28.8 mph N/A   Clear
11:35 AM 84.2 °F 86.6 °F 66.2 °F 55% 29.94 in 10.0 mi South 21.9 mph 27.6 mph N/A   Clear
11:55 AM 84.2 °F 86.6 °F 66.2 °F 55% 29.93 in 10.0 mi South 20.7 mph 28.8 mph N/A   Clear
12:15 PM 84.2 °F 86.6 °F 66.2 °F 55% 29.93 in 10.0 mi South 19.6 mph 28.8 mph N/A   Clear
12:35 PM 86.0 °F 88.2 °F 66.2 °F 51% 29.92 in 10.0 mi South 23.0 mph 29.9 mph N/A   Clear
12:55 PM 86.0 °F 88.2 °F 66.2 °F 51% 29.92 in 10.0 mi South 19.6 mph 28.8 mph N/A   Clear
1:15 PM 86.0 °F 88.2 °F 66.2 °F 51% 29.92 in 10.0 mi South 16.1 mph 26.5 mph N/A   Clear
1:35 PM 86.0 °F 88.2 °F 66.2 °F 51% 29.91 in 10.0 mi South 20.7 mph 27.6 mph N/A   Clear
1:55 PM 86.0 °F 88.2 °F 66.2 °F 51% 29.90 in 10.0 mi South 19.6 mph 27.6 mph N/A   Clear
2:15 PM 87.8 °F 90.4 °F 66.2 °F 49% 29.89 in 10.0 mi South 21.9 mph 31.1 mph N/A   Clear
2:35 PM 87.8 °F 89.4 °F 64.4 °F 46% 29.88 in 10.0 mi South 23.0 mph 33.4 mph N/A   Clear
2:55 PM 87.8 °F 90.4 °F 66.2 °F 49% 29.88 in 10.0 mi South 19.6 mph 31.1 mph N/A   Clear
3:15 PM 87.8 °F 90.4 °F 66.2 °F 49% 29.86 in 10.0 mi South 24.2 mph 31.1 mph N/A   Partly Cloudy
3:35 PM 89.6 °F 91.1 °F 64.4 °F 43% 29.86 in 10.0 mi South 24.2 mph 32.2 mph N/A   Clear
3:55 PM 87.8 °F 90.4 °F 66.2 °F 49% 29.86 in 10.0 mi South 21.9 mph 32.2 mph N/A   Clear
4:15 PM 87.8 °F 89.4 °F 64.4 °F 46% 29.85 in 10.0 mi South 25.3 mph 31.1 mph N/A   Clear
4:35 PM 87.8 °F 90.4 °F 66.2 °F 49% 29.84 in 10.0 mi South 21.9 mph 32.2 mph N/A   Clear
4:55 PM 87.8 °F 89.4 °F 64.4 °F 46% 29.84 in 10.0 mi South 24.2 mph 31.1 mph N/A   Clear
5:15 PM 86.0 °F 87.3 °F 64.4 °F 48% 29.84 in 10.0 mi South 20.7 mph 31.1 mph N/A   Clear
5:35 PM 86.0 °F 88.2 °F 66.2 °F 51% 29.84 in 10.0 mi South 17.3 mph 26.5 mph N/A   Clear
5:55 PM 86.0 °F 87.3 °F 64.4 °F 48% 29.84 in 10.0 mi South 23.0 mph 28.8 mph N/A   Clear
6:15 PM 86.0 °F 87.3 °F 64.4 °F 48% 29.84 in 10.0 mi South 13.8 mph 20.7 mph N/A   Clear
6:35 PM 84.2 °F 85.6 °F 64.4 °F 51% 29.84 in 10.0 mi South 15.0 mph 25.3 mph N/A   Clear
6:55 PM 84.2 °F 85.6 °F 64.4 °F 51% 29.84 in 10.0 mi South 16.1 mph 21.9 mph N/A   Clear
7:15 PM 84.2 °F 85.6 °F 64.4 °F 51% 29.84 in 10.0 mi South 17.3 mph 24.2 mph N/A   Clear
7:35 PM 82.4 °F 83.9 °F 64.4 °F 54% 29.84 in 10.0 mi South 12.7 mph - N/A   Clear
7:55 PM 82.4 °F 83.9 °F 64.4 °F 54% 29.85 in 10.0 mi South 17.3 mph 21.9 mph N/A   Clear
8:15 PM 82.4 °F 83.9 °F 64.4 °F 54% 29.85 in 10.0 mi SSE 16.1 mph - N/A   Clear
8:35 PM 80.6 °F 82.3 °F 64.4 °F 58% 29.85 in 10.0 mi SSE 12.7 mph - N/A   Clear
8:55 PM 80.6 °F 82.3 °F 64.4 °F 58% 29.86 in 10.0 mi SSE 13.8 mph 18.4 mph N/A   Clear
9:15 PM 78.8 °F - 64.4 °F 61% 29.86 in 10.0 mi SSE 13.8 mph - N/A   Clear
9:35 PM 77.0 °F - 64.4 °F 65% 29.87 in 10.0 mi SSE 12.7 mph - N/A   Clear
9:55 PM 77.0 °F - 64.4 °F 65% 29.87 in 10.0 mi SSE 12.7 mph - N/A   Clear
10:15 PM 77.0 °F - 64.4 °F 65% 29.87 in 10.0 mi South 15.0 mph 20.7 mph N/A   Clear
10:35 PM 77.0 °F - 64.4 °F 65% 29.87 in 10.0 mi South 15.0 mph - N/A   Clear
10:55 PM 77.0 °F - 64.4 °F 65% 29.87 in 10.0 mi South 15.0 mph - N/A   Clear
11:15 PM 77.0 °F - 64.4 °F 65% 29.87 in 10.0 mi South 13.8 mph 20.7 mph N/A   Clear
11:35 PM 77.0 °F - 64.4 °F 65% 29.86 in 10.0 mi South 16.1 mph 21.9 mph N/A   Clear
11:55 PM 77.0 °F - 64.4 °F 65% 29.87 in 10.0 mi South 13.8 mph - N/A   Clear